Previsão horária em Al-Jadida

Hoje, 20 Janeiro, Quarta-feira

Tempo Temperatura Precipitação Vento Pressão Humidade
00:00 +10°C° 0 mm 5 m/s 765 mmHg 88%
01:00 +10°C° 0 mm 6 m/s 765 mmHg 89%
02:00 +9°C° 0 mm 6 m/s 764 mmHg 90%
03:00 +10°C° 0 mm 6 m/s 764 mmHg 90%
04:00 +10°C° 0 mm 7 m/s 764 mmHg 90%
05:00 +11°C° 0 mm 7 m/s 764 mmHg 88%
06:00 +11°C° 0 mm 8 m/s 764 mmHg 87%
07:00 +12°C° 0 mm 8 m/s 764 mmHg 86%
08:00 +12°C° 0 mm 8 m/s 764 mmHg 86%
09:00 +15°C° 0 mm 9 m/s 764 mmHg 80%
10:00 +16°C° 0 mm 10 m/s 764 mmHg 74%
11:00 +17°C° 0 mm 11 m/s 765 mmHg 68%
12:00 +17°C° 0 mm 11 m/s 764 mmHg 69%
13:00 +17°C° 0 mm 11 m/s 764 mmHg 69%
14:00 +17°C° 0 mm 11 m/s 763 mmHg 70%
15:00 +17°C° 0.2 mm 11 m/s 764 mmHg 75%
16:00 +16°C° 0.2 mm 10 m/s 764 mmHg 80%
17:00 +14°C° 0.2 mm 10 m/s 764 mmHg 85%
18:00 +15°C° 0 mm 9 m/s 765 mmHg 85%
19:00 +15°C° 0 mm 9 m/s 765 mmHg 85%
20:00 +15°C° 0 mm 8 m/s 765 mmHg 85%
21:00 +15°C° 0.2 mm 8 m/s 766 mmHg 86%
22:00 +15°C° 0.2 mm 7 m/s 766 mmHg 88%
23:00 +15°C° 0.2 mm 7 m/s 766 mmHg 90%

Amanhã, 21 Janeiro, Quinta-feira

Tempo Temperatura Precipitação Vento Pressão Humidade
00:00 +15°C° 0.3 mm 5 m/s 766 mmHg 90%
01:00 +15°C° 0.3 mm 4 m/s 766 mmHg 91%
02:00 +16°C° 0.3 mm 3 m/s 766 mmHg 91%
03:00 +16°C° 0.1 mm 3 m/s 766 mmHg 91%
04:00 +15°C° 0.1 mm 2 m/s 766 mmHg 91%
05:00 +15°C° 0.1 mm 2 m/s 766 mmHg 91%
06:00 +14°C° 0 mm 3 m/s 766 mmHg 91%
07:00 +16°C° 0 mm 3 m/s 767 mmHg 90%
08:00 +16°C° 0 mm 3 m/s 767 mmHg 89%
09:00 +17°C° 0 mm 4 m/s 767 mmHg 85%
10:00 +18°C° 0 mm 4 m/s 767 mmHg 81%
11:00 +19°C° 0 mm 4 m/s 767 mmHg 77%
12:00 +19°C° 0 mm 4 m/s 767 mmHg 76%
13:00 +20°C° 0 mm 5 m/s 766 mmHg 75%
14:00 +20°C° 0 mm 5 m/s 766 mmHg 74%
15:00 +18°C° 0 mm 4 m/s 766 mmHg 79%
16:00 +17°C° 0 mm 4 m/s 766 mmHg 85%
17:00 +16°C° 0 mm 3 m/s 766 mmHg 90%
18:00 +16°C° 0 mm 3 m/s 767 mmHg 91%
19:00 +14°C° 0 mm 3 m/s 767 mmHg 93%
20:00 +14°C° 0 mm 3 m/s 767 mmHg 94%
21:00 +14°C° 0 mm 4 m/s 767 mmHg 94%
22:00 +14°C° 0 mm 4 m/s 767 mmHg 94%
23:00 +14°C° 0 mm 4 m/s 767 mmHg 94%

Depois de amanhã, 22 Janeiro, Sexta-feira

Tempo Temperatura Precipitação Vento Pressão Humidade
00:00 +14°C° 0 mm 5 m/s 767 mmHg 93%
01:00 +14°C° 0 mm 5 m/s 767 mmHg 92%
02:00 +14°C° 0 mm 5 m/s 767 mmHg 92%
03:00 +14°C° 0 mm 5 m/s 767 mmHg 91%
04:00 +14°C° 0 mm 6 m/s 767 mmHg 91%
05:00 +14°C° 0 mm 6 m/s 767 mmHg 90%
06:00 +14°C° 0 mm 6 m/s 767 mmHg 89%
07:00 +15°C° 0 mm 6 m/s 767 mmHg 87%
08:00 +15°C° 0 mm 6 m/s 768 mmHg 85%
09:00 +16°C° 0.1 mm 6 m/s 768 mmHg 84%
10:00 +17°C° 0.1 mm 6 m/s 768 mmHg 83%
11:00 +19°C° 0.1 mm 6 m/s 768 mmHg 81%
12:00 +19°C° 0.1 mm 5 m/s 767 mmHg 84%
13:00 +19°C° 0.1 mm 5 m/s 767 mmHg 87%
14:00 +19°C° 0.1 mm 4 m/s 767 mmHg 89%
15:00 +18°C° 0 mm 4 m/s 767 mmHg 91%
16:00 +17°C° 0 mm 3 m/s 767 mmHg 92%
17:00 +17°C° 0 mm 3 m/s 767 mmHg 93%
18:00 +16°C° 0 mm 3 m/s 768 mmHg 93%
19:00 +16°C° 0 mm 3 m/s 768 mmHg 92%
20:00 +14°C° 0 mm 3 m/s 768 mmHg 92%
21:00 +14°C° 0 mm 3 m/s 768 mmHg 91%
22:00 +14°C° 0 mm 3 m/s 768 mmHg 89%
23:00 +14°C° 0 mm 3 m/s 769 mmHg 88%

23 Janeiro, Sábado

Tempo Temperatura Precipitação Vento Pressão Humidade
00:00 +14°C° 0 mm 3 m/s 768 mmHg 88%
01:00 +13°C° 0 mm 3 m/s 768 mmHg 88%
02:00 +12°C° 0 mm 3 m/s 768 mmHg 88%
03:00 +12°C° 0 mm 3 m/s 768 mmHg 88%
04:00 +13°C° 0 mm 2 m/s 767 mmHg 89%
05:00 +12°C° 0 mm 2 m/s 767 mmHg 89%
06:00 +13°C° 0 mm 2 m/s 767 mmHg 87%
07:00 +14°C° 0 mm 2 m/s 767 mmHg 84%
08:00 +14°C° 0 mm 2 m/s 768 mmHg 82%
09:00 +15°C° 0 mm 2 m/s 767 mmHg 76%
10:00 +16°C° 0 mm 2 m/s 767 mmHg 70%
11:00 +17°C° 0 mm 2 m/s 767 mmHg 64%
12:00 +17°C° 0 mm 2 m/s 767 mmHg 63%
13:00 +18°C° 0 mm 3 m/s 766 mmHg 62%
14:00 +18°C° 0 mm 3 m/s 766 mmHg 62%
15:00 +17°C° 0 mm 3 m/s 765 mmHg 67%
16:00 +14°C° 0 mm 3 m/s 765 mmHg 72%
17:00 +13°C° 0 mm 3 m/s 765 mmHg 77%
18:00 +14°C° 0 mm 2 m/s 766 mmHg 78%
19:00 +13°C° 0 mm 2 m/s 766 mmHg 79%
20:00 +13°C° 0 mm 2 m/s 767 mmHg 79%
21:00 +13°C° 0 mm 1 m/s 767 mmHg 80%
22:00 +13°C° 0 mm 1 m/s 766 mmHg 80%
23:00 +12°C° 0 mm 1 m/s 766 mmHg 81%

24 Janeiro, Domingo

Tempo Temperatura Precipitação Vento Pressão Humidade
00:00 +12°C° 0 mm 1 m/s 766 mmHg 81%
01:00 +12°C° 0 mm 1 m/s 766 mmHg 82%
02:00 +12°C° 0 mm 1 m/s 766 mmHg 82%
03:00 +12°C° 0 mm 1 m/s 766 mmHg 82%
04:00 +12°C° 0 mm 2 m/s 766 mmHg 81%
05:00 +12°C° 0 mm 2 m/s 765 mmHg 80%
06:00 +13°C° 0 mm 2 m/s 766 mmHg 77%
07:00 +14°C° 0 mm 2 m/s 766 mmHg 74%
08:00 +15°C° 0 mm 2 m/s 766 mmHg 71%
09:00 +16°C° 0 mm 1 m/s 766 mmHg 69%
10:00 +18°C° 0 mm 1 m/s 766 mmHg 67%
11:00 +19°C° 0 mm 1 m/s 765 mmHg 64%
12:00 +19°C° 0 mm 1 m/s 765 mmHg 66%
13:00 +18°C° 0 mm 2 m/s 764 mmHg 68%
14:00 +18°C° 0 mm 3 m/s 764 mmHg 70%
15:00 +17°C° 0 mm 2 m/s 764 mmHg 76%
16:00 +16°C° 0 mm 2 m/s 764 mmHg 82%
17:00 +15°C° 0 mm 2 m/s 764 mmHg 88%
18:00 +15°C° 0 mm 2 m/s 765 mmHg 89%
19:00 +15°C° 0 mm 2 m/s 765 mmHg 91%
20:00 +14°C° 0 mm 2 m/s 765 mmHg 92%
21:00 +14°C° 0 mm 1 m/s 765 mmHg 93%
22:00 +14°C° 0 mm 1 m/s 765 mmHg 94%
23:00 +14°C° 0 mm 1 m/s 765 mmHg 94%

25 Janeiro, Segunda-feira

Tempo Temperatura Precipitação Vento Pressão Humidade
00:00 +14°C° 0 mm 1 m/s 765 mmHg 94%
01:00 +14°C° 0 mm 1 m/s 765 mmHg 94%
02:00 +14°C° 0 mm 1 m/s 765 mmHg 94%
03:00 +13°C° 0 mm 1 m/s 765 mmHg 94%
04:00 +12°C° 0 mm 0 m/s 765 mmHg 94%
05:00 +12°C° 0 mm 0 m/s 765 mmHg 94%
06:00 +13°C° 0 mm 0 m/s 765 mmHg 92%
07:00 +15°C° 0 mm 1 m/s 766 mmHg 91%
08:00 +16°C° 0 mm 1 m/s 766 mmHg 89%
09:00 +18°C° 0 mm 1 m/s 766 mmHg 83%
10:00 +19°C° 0 mm 1 m/s 766 mmHg 77%
11:00 +20°C° 0 mm 1 m/s 766 mmHg 70%
12:00 +19°C° 0 mm 2 m/s 766 mmHg 71%
13:00 +19°C° 0 mm 3 m/s 766 mmHg 72%
14:00 +20°C° 0 mm 4 m/s 765 mmHg 73%
15:00 +19°C° 0 mm 4 m/s 766 mmHg 79%
16:00 +17°C° 0 mm 5 m/s 766 mmHg 85%
17:00 +16°C° 0 mm 5 m/s 766 mmHg 91%
18:00 +15°C° 0 mm 5 m/s 767 mmHg 91%
19:00 +15°C° 0 mm 5 m/s 767 mmHg 90%
20:00 +14°C° 0 mm 6 m/s 768 mmHg 90%
21:00 +14°C° 0 mm 5 m/s 768 mmHg 89%
22:00 +14°C° 0 mm 5 m/s 768 mmHg 89%
23:00 +13°C° 0 mm 5 m/s 768 mmHg 89%
Mostrar mais

Necessitamos do seu Consentimento

A Meteoprog e os seus Fornecedores de Serviços podem armazenar e aceder a dados pessoais como cookies, identificadores do dispositivo ou outras tecnologias semelhantes existentes no seu dispositivo e processar estes dados para personalizar conteúdos e anúncios, assim como funcionalidades nas redes sociais e análise de tráfego.

  • Armazenar e/ou aceder a informações no seu dispositivo

    Os cookies, identificadores do dispositivo ou outras informações podem ser armazenados ou acedidos no seu dispositivo, para os fins acima indicados.

  • Anúncios e conteúdos personalizados, medição de anúncios e conteúdos, dados sobre o público-alvo e desenvolvimento de produtos

    Os anúncios e os conteúdos podem ser personalizados com base num perfil. Podem ser adicionados dados adicionais para uma maior personalização dos anúncios e dos conteúdos. A eficácia dos anúncios e dos conteúdos pode ser medida. Podem ser obtidas informações sobre o público que visualizou os anúncios e os conteúdos. Estes dados podem ser usados para desenvolver ou melhorar sistemas, softwares ou a experiência do utilizador.

Ao clicar em "Eu concordo”, permitirá o uso de cookies, identificadores do dispositivo e web beacons mencionados ou outras tecnologias semelhantes. As configurações do navegador do seu dispositivo podem ser alteradas.

Para certos fins, podem ser invocados interesses legítimos ao invés de consentimento. Pode ler mais informação sobre este assunto na nossa Política de Privacidade e Cookies.